Flag for U.S.A. Weather past 2 weeks in Montpelier, Vermont, U.S.A.

Now
76 °F

Mostly cloudy.


Feels Like: 77 °F
Forecast: 59 / 81 °F
Wind: 8 mph from South

Location: Knapp State Airport

Current Time: Jul 7, 2015 at 2:38:39 PM

Latest Report: Jul 7, 2015 at 1:51 PM


Visibility: 10 mi

Pressure: 29.99 "Hg

Humidity: 72%

Dew point: 66 °F

Location of MontpelierLocation

Historic Weather in Montpelier — Graph

°F

Montpelier temperature yesterday

Maximum temperature yesterday: 80 °F (at 2:51 PM)
Minimum temperature yesterday: 54 °F (at 4:51 AM)
Average temperature yesterday: 66 °F

Past Weeks' High & Low Weather Summary

 TemperatureHumidityPressure
High81 °F (Jun 23, 3:51 PM)100% (Jun 30, 7:00 AM)30.23 "Hg (Jun 30, 7:00 AM)
Low43 °F (Jul 3, 4:51 AM)34% (Jul 3, 2:51 PM)29.66 "Hg (Jun 23, 3:51 PM)
Average62 °F75%30.00 "Hg
* Reported Jun 22 12:51 PM — Jul 7 12:51 PM, Montpelier, Weather by CustomWeather, © 2015

Note: Actual official high and low records may vary slightly from our data, if they occured in-between our weather recording intervals... More about our weather records

Advertising

Montpelier weather history for previous 24 hours

 ConditionsComfort  
Time TempWeatherWind HumidityBarometerVisibility
12:51 PM
Tue, Jul 7
77 °FMostly cloudy.10 mph69%30.01 "Hg10 mi
11:51 AM78 °FPartly sunny.13 mph66%30.03 "Hg10 mi
10:51 AM76 °FBroken clouds.14 mph69%30.03 "Hg10 mi
9:51 AM75 °FScattered clouds.13 mph71%30.06 "HgN/A
8:51 AM70 °FOvercast.8 mph79%30.09 "Hg8 mi
7:51 AM67 °FOvercast.6 mph87%30.09 "Hg7 mi
6:51 AM62 °FOvercast.No wind90%30.11 "Hg7 mi
5:51 AM57 °FFog.No wind93%30.11 "Hg6 mi
4:51 AM57 °FClear.No wind93%30.10 "Hg7 mi
3:51 AM57 °FPassing clouds.No wind93%30.10 "Hg7 mi
2:51 AM56 °FClear.No wind93%30.10 "Hg7 mi
1:51 AM57 °FClear.No wind90%30.11 "Hg9 mi
12:51 AM58 °FClear.No wind90%30.12 "Hg10 mi
11:51 PM
Mon, Jul 6
60 °FClear.No wind83%30.13 "Hg10 mi
10:51 PM60 °FClear.No wind83%30.13 "Hg10 mi
9:51 PM62 °FClear.No wind78%30.14 "Hg10 mi
8:51 PM66 °FSunny.5 mph65%30.12 "Hg10 mi
7:51 PM72 °FSunny.3 mph57%30.13 "Hg10 mi
6:51 PM76 °FSunny.5 mph47%30.12 "Hg10 mi
5:51 PM78 °FSunny.8 mph43%30.12 "Hg10 mi
4:51 PM79 °FSunny.8 mph42%30.14 "Hg10 mi
3:51 PM80 °FSunny.6 mph41%30.16 "Hg10 mi
2:51 PM80 °FSunny.7 mph41%30.16 "Hg10 mi
Weather by CustomWeather, © 2015

See weather overviewHow to use our weather pages